Date String (YYYY-MM-DD hh:mm:ss) UTC,Instrument flags,Ambient pressure (hPa),Sample flow (lpm),Bypass flow (lpm),Sample temperature (°C),Ambient temperature (°C),ASC tube jacket temperature (°C),LED temperature (°C),Box temperature (°C),Sample RH (%),Span deviation,Mass concentration (μg/m³),Mass concentration (μg/m³),Mass concentration (μg/m³)
DateTimeUTC,F1_M11,P_M11,Q1_M11,Q2_M11,T1_M11,T2_M11,T3_M11,T4_M11,T5_M11,U1_M11,ZSPAN_M11,X2_M11,X0_M11,X1_M11
2023-03-07 12:00:00,,0825.0,5.00,0.00,22.3,20.4,00.0,31.1,23.9,15.6,0000.0,0003.35,0004.39,0003.23
2023-03-07 12:01:00,,0825.0,5.01,0.00,22.3,20.7,00.0,31.1,24.0,15.6,0000.0,0003.35,0004.41,0003.21
2023-03-07 12:02:00,,0825.1,5.01,0.00,22.4,21.8,00.0,31.1,24.2,15.5,0000.0,0003.34,0004.24,0003.20
2023-03-07 12:03:00,,0825.2,4.99,0.00,22.5,22.8,00.0,31.1,24.4,15.4,0000.0,0003.32,0004.19,0003.18
2023-03-07 12:04:00,,0825.2,5.00,0.00,22.6,22.8,00.0,31.2,24.5,15.4,0000.0,0003.28,0004.09,0003.16
2023-03-07 12:05:00,,0825.2,4.99,0.00,22.6,22.3,00.0,31.2,24.4,15.4,0000.0,0003.26,0004.01,0003.14
2023-03-07 12:06:00,,0825.4,4.96,0.00,22.6,21.8,00.0,31.2,24.3,15.4,0000.0,0003.25,0004.06,0003.13
2023-03-07 12:07:00,,0825.2,5.00,0.00,22.5,21.5,00.0,31.2,24.2,15.4,0000.0,0003.24,0004.09,0003.12
2023-03-07 12:08:00,,0825.0,5.00,0.00,22.5,21.1,00.0,31.2,24.1,15.4,0000.0,0003.22,0004.10,0003.10
2023-03-07 12:09:00,,0824.7,5.01,0.00,22.5,20.9,00.0,31.2,24.1,15.4,0000.0,0003.20,0004.20,0003.08
2023-03-07 12:10:00,,0824.8,4.99,0.00,22.4,20.7,00.0,31.2,24.0,15.4,0000.0,0003.20,0004.21,0003.06
2023-03-07 12:11:00,,0825.2,5.02,0.00,22.4,20.5,00.0,31.2,24.0,15.5,0000.0,0003.19,0004.18,0003.05
2023-03-07 12:12:00,,0825.4,5.02,0.00,22.4,20.4,00.0,31.2,23.9,15.5,0000.0,0003.16,0004.09,0003.04
2023-03-07 12:13:00,,0825.4,4.99,0.00,22.3,20.5,00.0,31.2,23.9,15.5,0000.0,0003.15,0004.06,0003.04
2023-03-07 12:14:00,,0825.3,5.02,0.00,22.4,21.6,00.0,31.1,24.2,15.5,0000.0,0003.16,0004.08,0003.05
2023-03-07 12:15:00,,0825.1,5.04,0.00,22.5,22.7,00.0,31.2,24.4,15.4,0000.0,0003.17,0004.09,0003.07
2023-03-07 12:16:00,,0825.0,4.98,0.00,22.6,23.1,00.0,31.2,24.5,15.3,0000.0,0003.17,0004.09,0003.07
2023-03-07 12:17:00,,0825.1,5.01,0.00,22.6,22.5,00.0,31.2,24.5,15.3,0000.0,0003.15,0003.95,0003.06
2023-03-07 12:18:00,,0825.3,4.99,0.00,22.6,22.0,00.0,31.2,24.4,15.3,0000.0,0003.13,0003.88,0003.04
2023-03-07 12:19:00,,0825.3,5.00,0.00,22.6,21.6,00.0,31.2,24.3,15.3,0000.0,0003.12,0003.80,0003.02
2023-03-07 12:20:00,,0825.3,5.00,0.00,22.6,21.3,00.0,31.2,24.2,15.3,0000.0,0003.10,0003.68,0002.99
2023-03-07 12:21:00,,0825.2,5.00,0.00,22.5,21.0,00.0,31.2,24.1,15.4,0000.0,0003.05,0003.57,0002.96
2023-03-07 12:22:00,,0825.2,5.00,0.00,22.5,20.8,00.0,31.2,24.1,15.4,0000.0,0003.04,0003.64,0002.93
2023-03-07 12:23:00,,0825.2,5.01,0.00,22.5,20.7,00.0,31.2,24.0,15.4,0000.0,0003.02,0003.65,0002.90
2023-03-07 12:24:00,,0825.3,5.00,0.00,22.4,20.5,00.0,31.2,24.0,15.5,0000.0,0002.99,0003.62,0002.88
2023-03-07 12:25:00,,0825.3,5.00,0.00,22.4,20.4,00.0,31.2,24.0,15.5,0000.0,0002.95,0003.58,0002.85
2023-03-07 12:26:00,,0825.3,5.01,0.00,22.4,20.7,00.0,31.2,24.0,15.6,0000.0,0002.91,0003.55,0002.81
2023-03-07 12:27:00,,0825.4,4.99,0.00,22.4,21.8,00.0,31.2,24.2,15.5,0000.0,0002.87,0003.49,0002.77
2023-03-07 12:28:00,,0825.3,5.01,0.00,22.6,22.8,00.0,31.2,24.5,15.5,0000.0,0002.86,0003.51,0002.74
2023-03-07 12:29:00,,0825.4,5.00,0.00,22.6,22.9,00.0,31.2,24.5,15.4,0000.0,0002.85,0003.53,0002.72
2023-03-07 12:30:00,,0825.3,5.00,0.00,22.6,22.4,00.0,31.2,24.4,15.4,0000.0,0002.86,0003.58,0002.71
2023-03-07 12:31:00,,0825.3,5.01,0.00,22.6,22.0,00.0,31.3,24.4,15.4,0000.0,0002.85,0003.54,0002.71
2023-03-07 12:32:00,,0825.4,5.01,0.00,22.6,21.6,00.0,31.3,24.3,15.4,0000.0,0002.86,0003.57,0002.71
2023-03-07 12:33:00,,0825.3,5.00,0.00,22.6,21.3,00.0,31.3,24.2,15.4,0000.0,0002.85,0003.49,0002.72
2023-03-07 12:34:00,,0825.4,5.00,0.00,22.5,21.1,00.0,31.2,24.2,15.4,0000.0,0002.86,0003.46,0002.73
2023-03-07 12:35:00,,0825.4,4.99,0.00,22.5,20.9,00.0,31.2,24.1,15.5,0000.0,0002.88,0003.48,0002.73
2023-03-07 12:36:00,,0825.4,4.99,0.00,22.5,20.8,00.0,31.2,24.1,15.5,0000.0,0002.89,0003.50,0002.74
2023-03-07 12:37:00,,0825.4,4.99,0.00,22.4,20.6,00.0,31.2,24.0,15.5,0000.0,0002.89,0003.48,0002.75
2023-03-07 12:38:00,,0825.4,5.00,0.00,22.4,20.5,00.0,31.2,24.0,15.6,0000.0,0002.89,0003.50,0002.76
2023-03-07 12:39:00,,0825.4,5.01,0.00,22.4,20.9,00.0,31.2,24.1,15.6,0000.0,0002.90,0003.52,0002.76
2023-03-07 12:40:00,,0825.4,4.97,0.00,22.5,22.1,00.0,31.2,24.3,15.5,0000.0,0002.89,0003.50,0002.76
2023-03-07 12:41:00,,0825.4,5.03,0.00,22.6,23.1,00.0,31.2,24.5,15.4,0000.0,0002.87,0003.46,0002.75
2023-03-07 12:42:00,,0825.4,5.01,0.00,22.7,22.9,00.0,31.3,24.5,15.4,0000.0,0002.89,0003.49,0002.76
2023-03-07 12:43:00,,0825.5,5.00,0.00,22.7,22.4,00.0,31.3,24.4,15.3,0000.0,0002.91,0003.50,0002.78
2023-03-07 12:44:00,,0825.4,5.01,0.00,22.6,21.9,00.0,31.3,24.4,15.4,0000.0,0002.93,0003.54,0002.79
2023-03-07 12:45:00,,0825.4,5.00,0.00,22.6,21.6,00.0,31.3,24.3,15.4,0000.0,0002.93,0003.57,0002.80
2023-03-07 12:46:00,,0825.5,5.01,0.00,22.6,21.4,00.0,31.3,24.3,15.4,0000.0,0002.89,0003.50,0002.78
2023-03-07 12:47:00,,0825.5,5.00,0.00,22.6,21.1,00.0,31.3,24.2,15.4,0000.0,0002.87,0003.46,0002.77
2023-03-07 12:48:00,,0825.5,5.00,0.00,22.5,20.9,00.0,31.3,24.2,15.5,0000.0,0002.86,0003.45,0002.76
2023-03-07 12:49:00,,0825.6,5.00,0.00,22.5,20.8,00.0,31.3,24.1,15.5,0000.0,0002.88,0003.48,0002.77
2023-03-07 12:50:00,,0825.6,5.00,0.00,22.5,20.6,00.0,31.3,24.1,15.6,0000.0,0002.91,0003.47,0002.81
2023-03-07 12:51:00,,0825.6,5.00,0.00,22.4,20.6,00.0,31.2,24.0,15.6,0000.0,0002.94,0003.48,0002.85
2023-03-07 12:52:00,,0825.5,5.00,0.00,22.4,20.7,00.0,31.2,24.0,15.6,0000.0,0002.97,0003.47,0002.89
2023-03-07 12:53:00,,0825.5,4.99,0.00,22.5,21.7,00.0,31.2,24.3,15.6,0000.0,0003.01,0003.51,0002.92
2023-03-07 12:54:00,,0825.5,5.02,0.00,22.6,22.9,00.0,31.2,24.5,15.6,0000.0,0003.03,0003.55,0002.94
2023-03-07 12:55:00,,0825.6,5.01,0.00,22.7,23.0,00.0,31.3,24.6,15.5,0000.0,0003.05,0003.54,0002.96
2023-03-07 12:56:00,,0825.6,4.99,0.00,22.7,22.5,00.0,31.3,24.5,15.5,0000.0,0003.06,0003.51,0003.00
2023-03-07 12:57:00,,0825.6,5.00,0.00,22.7,22.1,00.0,31.3,24.4,15.5,0000.0,0003.12,0003.56,0003.05
2023-03-07 12:58:00,,0825.5,5.00,0.00,22.7,21.7,00.0,31.3,24.3,15.5,0000.0,0003.15,0003.60,0003.11
2023-03-07 12:59:00,,0825.5,4.99,0.00,22.6,21.4,00.0,31.3,24.3,15.5,0000.0,0003.19,0003.64,0003.14
